BREEZE-M DEB (TANK), 40260

Orbit data source: Space-Track

BREEZE-M DEB (TANK), 40260 is space debris in HEO originally from a launch on Sat, 27 Sep 2014 UTC launched from the Tyuratam Missile And Space Complex (TTMTR). Debris objects in space refer to the collection of defunct objects orbiting the Earth. Examples of debris include non-operational satellites, rocket bodies, and fragments generated from explosions, collisions, or faulty payload assembly.

Loading next visibility...
Identifier
40260, 2014-058C
Orbit
HEO
Last TLE update
1 day ago
Origin
Manufacturer
Khrunichev
Mission
Spacecraft
Bus & Motor
BRIZ TANK, Unknown motor
Mass
~1,000 kg wet, 1,000 kg dry
Launch date (UTC)
2014-09-27 (11 years ago)
Launch vehicle
Unknown
Launch site
Tyuratam Missile And Space Complex (TTMTR)
Object type
Payload
Rocket body
Debris
Shape & HBR
Torus, 4 m
Radar Cross Section
8.218 m², Large (>1 m²)

Expand to show TLE details & history

TLE from 1 day ago
0 BREEZE-M DEB (TANK)
1 40260U 14058C   25180.89431353 -.00000106  00000-0 -64244-3 0  9994
2 40260  45.6569  26.4158 7022532 329.7099   3.8633  2.27183030 88538
Epoch: 2025-06-29T21:27Z
TLE epoch observation values (Epoch: 2025-06-29T21:27:48.688Z)
Latitude
-0.00004°
Longitude
146.2817°
Altitude
1,360.086 km
Speed
9.312 km/s
True Right ascension
01h 45m 47s
True Declination
0° 00' 00"
Sunlit
Object was in daylight at epoch
Visualization orbit readout
Latitude
30.9246°
Longitude
-69.92369°
Altitude
31,752.909 km
Speed
2.145 km/s
Apparent Right ascension
10h 57m 56s
Apparent Declination
23° 11' 42"
Sunlit
Object is in daylight
Visualization observer readout
Local Sidereal Time
20:09:40
Azimuth
320.231° NNW
Elevation
-15.703°
Doppler factor
1
Orbital elements
Apogee altitude
35,231.73 km
Perigee altitude
899.984 km
Semi-major axis
24,443.994 km
Eccentricity
0.70225
Inclination
45.6569°
RAAN
26.4158°
Arg. of periapsis
329.7099°
True anomaly
Unknown
Mean anomaly
3.8633°
Eccentric anomaly
Unknown
Mean motion
0.56792 °/min
Orbital period
633.9 mins
BSTAR
-0.00064244
Loading maneuver chart data...
Loading SW <> Apogee altitude chart data...
Loading historical data...
Loading historical data...
Loading historical data...
Loading historical data...
Loading historical data...
Loading historical data...
Loading historical data...
Other satellites on launch #58 in the year 2014 (2014-09-27 UTC)

BREEZE-M DEB (TANK) Visibility forecast

Observer location: undefined°, undefined°

Span
Click to sort rows by Start time (UTC) header in descending order
Start Az.
Max El. time (UTC)
Max El. Az.
Max El.
End time (UTC)
End Az.
549 mins2025-07-01 15:47:32.251Z207.594° SW2025-07-01 15:59:32.251Z129.8° SE42.128°2025-07-02 00:56:32.251Z144.65° SSE
112 mins2025-07-02 03:42:32.251Z306.643° NW2025-07-02 04:27:32.251Z299.558° NW13.871°2025-07-02 05:34:32.251Z294.711° NW
|